[[{"header":{"parameterUnit":"m.s-1","parameterCategory":1,"la1":30.2991,"la2":30.254,"lo1":-89.0895,"lo2":-89.0444,"dy":0.0017,"dx":0.0017,"nx":28,"ny":28,"refTime":"2024-06-22T09:00:00:Z","depth":0,"parameterNumber":2,"parameterNumberName":"U-component_of_WINDS"},"data":[0,0,0,0,0,0,0,0,0,0,0,0,0,0,0,0,0,0,0,0,0,0,0,0,0,0,0,0,0,0,0,0,0,0,0,0,0,0,0,0,0,0,0,0,0,0,0,0,0,0,0,0,0,0,0,0,0,0,2.5859,2.5859,0,2.5886,2.5887,2.5887,2.5841,2.5839,2.5838,2.5836,2.5863,2.5865,2.5867,0,0,0,0,0,0,0,0,0,0,0,0,0,2.5765,2.5767,2.5859,2.5859,2.586,2.5886,2.5887,2.5887,2.5841,2.5839,2.5837,2.5836,2.5862,2.5865,2.5867,0,0,0,0,0,0,0,0,0,0,0,0,0,2.5801,2.5768,2.5859,2.584,2.5839,2.5886,2.5887,2.5887,2.5842,2.5839,2.5837,2.5835,2.5861,2.5864,2.5868,2.5934,0,0,2.5878,2.5879,0,0,0,0,0,0,0,0,2.5799,2.5804,2.5842,2.5841,2.584,2.5858,2.5863,2.5903,2.5842,2.584,2.5836,2.5834,2.5863,2.5866,2.5876,2.5936,2.5937,2.5878,2.588,2.5881,2.5882,0,0,0,0,0,0,0,2.5796,2.5803,2.587,2.5843,2.5842,2.583,2.5832,2.5871,2.5864,2.584,2.5837,2.5841,2.5862,2.5873,2.5876,2.5937,2.5878,2.5881,2.5883,2.5884,2.6051,2.6054,0,0,0,0,0,0,2.5796,2.5801,2.5869,2.587,2.5813,2.5833,2.5836,2.5854,2.5864,2.5863,2.5843,2.5839,2.5869,2.5873,2.5877,2.5955,2.5881,2.5884,2.5886,2.6049,2.6052,2.6055,0,0,0,0,0,0,2.5795,2.5803,2.5868,2.5835,2.5842,2.5837,2.5858,2.5856,2.5867,2.5866,2.5864,2.5856,2.5867,2.5873,2.592,2.5955,2.5886,2.5889,2.6046,2.605,2.6053,2.6111,0,0,0,0,0,0,2.5792,2.5803,2.5828,2.5836,2.5844,2.5911,2.5861,2.5858,2.5873,2.5868,2.5877,2.5877,2.5866,2.5916,2.5924,2.5958,2.5891,2.6043,2.6048,2.6052,2.6106,2.6117,2.6126,0,0,0,0,0,2.5789,2.5843,2.583,2.5838,2.5876,2.5913,2.5918,2.5904,2.5876,2.5902,2.5901,2.5876,2.595,2.5921,2.5929,2.5966,2.604,2.6046,2.6052,2.6102,2.6115,2.6125,0,0,0,0,0,0,2.584,2.5844,2.5829,2.5888,2.5901,2.5905,2.5937,2.5918,2.5939,2.5933,2.5915,2.5918,2.5969,2.5972,2.5939,2.603,2.5991,2.5998,2.6026,2.6038,2.6047,2.6045,2.5894,0,0,0,0,0,2.5858,2.5888,2.589,2.5942,2.5949,2.5942,2.5958,2.5946,2.5958,2.5963,2.5966,2.5978,2.6004,2.6021,2.6045,2.6107,2.6108,2.6136,2.6146,2.6154,2.616,2.6192,2.6204,2.6073,2.6073,2.6073,0,0,2.5895,2.5902,2.5922,2.5952,2.596,2.5991,2.5947,2.5982,2.6004,2.5968,2.6013,2.6016,2.6028,2.6083,2.6107,2.6087,2.6196,2.6161,2.6167,2.6169,2.6199,2.6211,2.6222,2.6077,2.6076,2.6076,0,0,2.5979,2.5988,2.6031,2.604,2.6054,2.6049,2.606,2.6067,2.6068,2.6113,2.6086,2.6113,2.6158,2.6167,2.6178,2.6266,2.6244,2.6274,2.6324,2.6355,2.6365,2.6374,2.6404,2.6415,2.6281,2.6281,2.6281,0,2.6024,2.607,2.6055,2.6092,2.6106,2.6075,2.6119,2.6128,2.6149,2.6159,2.6136,2.6192,2.6198,2.6254,2.6276,2.6286,2.6297,2.6272,2.6365,2.6374,2.6382,2.641,2.6422,2.6284,2.6284,2.6284,2.6283,0,2.6124,2.6156,2.6189,2.621,2.6228,2.6267,2.6258,2.6278,2.6265,2.6262,2.6308,2.6314,2.6338,2.6351,2.6339,2.6405,2.6392,2.6368,2.6328,2.6398,2.6424,2.6435,2.6289,2.6288,2.6287,2.6286,0,0,2.624,2.6252,2.6264,2.6273,2.6286,2.631,2.6348,2.6372,2.6388,2.6404,2.6434,2.6473,2.6451,2.6463,2.6452,2.6479,2.6547,2.6451,2.6451,2.6468,2.6619,2.6636,2.6649,2.6533,2.6535,2.6536,2.6617,0,2.6322,2.6388,2.6376,2.644,2.6469,2.6441,2.6473,2.6484,2.6483,2.6507,2.6505,2.6532,2.6501,2.6508,2.6534,2.6533,2.6576,2.6527,2.656,2.6561,2.6556,2.6663,2.6681,2.6757,2.6627,2.6629,2.663,0,2.6427,2.6446,2.6513,2.652,2.6532,2.6562,2.6582,2.6606,2.6618,2.6615,2.6629,2.6612,2.6649,2.6609,2.6659,2.6626,2.6638,2.664,2.6642,2.6644,2.6599,2.6666,2.6781,2.6792,2.6647,2.6645,2.6644,0,2.6503,2.6546,2.6591,2.6599,2.661,2.6631,2.6636,2.6646,2.6661,2.6679,2.6688,2.671,2.6722,2.6739,2.6728,2.67,2.678,2.6739,2.6777,2.6777,2.6794,2.6793,2.6911,2.6805,2.6804,2.6804,2.6804,0,2.6595,2.6637,2.6625,2.6653,2.6698,2.6684,2.6729,2.6731,2.674,2.6766,2.6744,2.6769,2.6754,2.6779,2.6771,2.6812,2.6818,2.6816,2.6813,2.6817,2.6817,2.6824,2.6818,2.6807,2.6807,2.6806,2.6805,0,2.6688,2.6682,2.6729,2.6735,2.6737,2.677,2.6775,2.68,2.6797,2.6831,2.6839,2.6834,2.6861,2.6852,2.6882,2.6876,2.6929,2.692,2.6925,2.6922,2.696,2.6956,2.7086,2.7102,2.6987,2.6988,2.6989,0,2.6746,2.6778,2.6787,2.6804,2.681,2.6838,2.6853,2.684,2.6856,2.6872,2.6895,2.6921,2.694,2.6985,2.6983,2.7005,2.6996,2.704,2.6999,2.7002,2.6995,2.6992,2.6995,2.7048,2.7049,2.705,2.7051,0,2.6851,2.6846,2.6869,2.6891,2.691,2.6926,2.6941,2.6955,2.6943,2.6963,2.6991,2.7006,2.7036,2.7061,2.7081,2.7085,2.7066,2.7064,2.7074,2.7078,2.7079,2.7077,2.6946,2.7061,2.706,2.7059,2.7059,2.7058,2.6927,2.6953,2.6963,2.6989,2.6999,2.7013,2.7037,2.7037,2.706,2.7084,2.7075,2.7106,2.7116,2.7141,2.7148,2.7172,2.7155,2.717,2.7173,2.7176,2.718,2.7076,2.7176,2.7176,2.7176,2.7175,2.7175,0,2.7028,2.7034,2.7058,2.7079,2.71,2.708,2.7095,2.7113,2.7142,2.7153,2.7173,2.7204,2.7228,2.7229,2.7251,2.727,2.7262,2.7276,2.7274,2.7275,2.7195,2.7184,2.7283,2.7283,2.7282,2.7282,2.7282,2.7282,2.7084,2.7127,2.7123,2.717,2.7175,2.7206,2.7216,2.7229,2.7237,2.7274,2.7294,2.7294,2.7301,2.7323,2.7344,2.7344,2.7352,2.737,2.7366,2.7291,2.7281,2.727,2.726,2.7373,2.7373,2.7444,2.7444,2.7445]},{"header":{"parameterUnit":"m.s-1","parameterCategory":1,"la1":30.2991,"la2":30.254,"lo1":-89.0895,"lo2":-89.0444,"dy":0.0017,"dx":0.0017,"nx":28,"ny":28,"refTime":"2024-06-22T09:00:00:Z","depth":0,"parameterNumber":3,"parameterNumberName":"V-component_of_WINDS"},"data":[0,0,0,0,0,0,0,0,0,0,0,0,0,0,0,0,0,0,0,0,0,0,0,0,0,0,0,0,0,0,0,0,0,0,0,0,0,0,0,0,0,0,0,0,0,0,0,0,0,0,0,0,0,0,0,0,0,0,1.8155,1.8157,0,1.828,1.8281,1.8283,1.8321,1.8321,1.832,1.8319,1.8443,1.8446,1.845,0,0,0,0,0,0,0,0,0,0,0,0,0,1.7946,1.795,1.8155,1.8157,1.8158,1.828,1.8281,1.8283,1.8321,1.8321,1.832,1.8319,1.8441,1.8446,1.845,0,0,0,0,0,0,0,0,0,0,0,0,0,1.805,1.7951,1.8155,1.8192,1.8197,1.8279,1.8281,1.8283,1.8321,1.8321,1.832,1.8319,1.844,1.8445,1.8451,1.8504,0,0,1.8469,1.8471,0,0,0,0,0,0,0,0,1.8044,1.8058,1.8185,1.819,1.8195,1.8284,1.8253,1.8357,1.8322,1.8274,1.8319,1.8318,1.839,1.84,1.8425,1.851,1.8515,1.8469,1.8473,1.8475,1.8477,0,0,0,0,0,0,0,1.8037,1.8053,1.8204,1.8187,1.8193,1.8201,1.8215,1.8273,1.8335,1.8278,1.8281,1.8296,1.8393,1.842,1.8428,1.8517,1.8469,1.8474,1.8478,1.848,1.8651,1.8652,0,0,0,0,0,0,1.8024,1.8047,1.82,1.8208,1.8116,1.8206,1.8221,1.8256,1.8335,1.8346,1.8296,1.8297,1.841,1.8422,1.8433,1.85,1.8475,1.848,1.8484,1.865,1.8651,1.8653,0,0,0,0,0,0,1.802,1.8038,1.8195,1.8128,1.8149,1.821,1.8249,1.8259,1.8286,1.8349,1.836,1.8312,1.841,1.8425,1.8486,1.8505,1.8483,1.8488,1.8649,1.865,1.8652,1.8636,0,0,0,0,0,0,1.8013,1.8036,1.8058,1.8129,1.8152,1.8248,1.8251,1.8262,1.8297,1.8299,1.8367,1.8377,1.841,1.8478,1.8492,1.8513,1.8493,1.8647,1.8649,1.8651,1.8635,1.8636,1.8638,0,0,0,0,0,1.8006,1.8047,1.8058,1.8077,1.8181,1.8249,1.8263,1.8301,1.8298,1.832,1.836,1.8375,1.8501,1.8484,1.85,1.8523,1.8646,1.8649,1.8651,1.8634,1.8636,1.8638,0,0,0,0,0,0,1.7975,1.8057,1.8071,1.8136,1.8186,1.8256,1.8285,1.8302,1.8353,1.8352,1.8397,1.8412,1.847,1.8503,1.8482,1.8578,1.8574,1.858,1.8555,1.8558,1.8559,1.855,1.8497,0,0,0,0,0,1.7976,1.8026,1.8094,1.8145,1.817,1.8223,1.8254,1.8279,1.8332,1.8352,1.8397,1.8446,1.8496,1.8529,1.8579,1.8639,1.8654,1.8663,1.8664,1.8665,1.867,1.8704,1.8709,1.8661,1.8661,1.8661,0,0,1.7979,1.8029,1.8058,1.8141,1.8182,1.8231,1.824,1.8292,1.8328,1.836,1.8421,1.8455,1.8513,1.8574,1.8603,1.8603,1.8687,1.8669,1.8669,1.8673,1.8707,1.8712,1.8716,1.8662,1.8662,1.8662,0,0,1.8008,1.8052,1.81,1.8141,1.8204,1.8239,1.825,1.8318,1.8342,1.8405,1.843,1.8473,1.8559,1.8599,1.863,1.8675,1.8691,1.869,1.8698,1.8731,1.8735,1.8738,1.8754,1.8759,1.8694,1.8694,1.8694,0,1.8003,1.808,1.8121,1.8173,1.8208,1.824,1.8288,1.8325,1.84,1.8423,1.8422,1.8531,1.8572,1.8643,1.8654,1.8678,1.8692,1.8682,1.8731,1.8735,1.8739,1.8754,1.876,1.8693,1.8694,1.8694,1.8694,0,1.807,1.8123,1.8153,1.8227,1.8266,1.8315,1.8363,1.8396,1.8418,1.8453,1.8516,1.8566,1.8626,1.8645,1.8666,1.8719,1.8717,1.8723,1.8719,1.8742,1.8758,1.8764,1.8693,1.8693,1.8693,1.8693,0,0,1.8084,1.8181,1.8191,1.8225,1.8297,1.8338,1.8387,1.8448,1.8476,1.8526,1.8569,1.8641,1.8647,1.8683,1.8709,1.8737,1.8769,1.874,1.8742,1.8743,1.883,1.8825,1.8831,1.878,1.8781,1.8782,1.8825,0,1.8123,1.8216,1.8255,1.8328,1.8377,1.8408,1.8451,1.8499,1.8532,1.8577,1.8614,1.8664,1.8668,1.869,1.872,1.8759,1.8787,1.8756,1.8818,1.882,1.8804,1.884,1.8835,1.8873,1.8831,1.8832,1.8833,0,1.8182,1.8234,1.8313,1.8379,1.8401,1.8439,1.8498,1.8541,1.8595,1.8618,1.8658,1.8682,1.8734,1.8727,1.8799,1.8777,1.8804,1.8827,1.8829,1.8837,1.8828,1.8848,1.8886,1.8892,1.8843,1.8842,1.8841,0,1.8184,1.8274,1.8334,1.8361,1.844,1.8466,1.8499,1.8553,1.8587,1.8637,1.866,1.8715,1.8745,1.8787,1.8825,1.8816,1.8893,1.8889,1.8912,1.8911,1.8927,1.8925,1.897,1.8944,1.8944,1.8944,1.8943,0,1.8224,1.8271,1.8336,1.8372,1.8426,1.8469,1.852,1.8555,1.8603,1.8645,1.8674,1.8713,1.8762,1.8806,1.8836,1.8891,1.8904,1.8922,1.893,1.892,1.8918,1.8939,1.8937,1.8945,1.8945,1.8944,1.8944,0,1.8236,1.8282,1.8348,1.8417,1.8435,1.8471,1.853,1.8565,1.86,1.8654,1.8668,1.8722,1.8777,1.8819,1.8889,1.8909,1.8966,1.8974,1.8949,1.8952,1.8973,1.897,1.9033,1.9043,1.901,1.901,1.901,0,1.8259,1.8296,1.8369,1.8401,1.8434,1.8484,1.852,1.8563,1.8598,1.8663,1.869,1.8747,1.8795,1.8879,1.8924,1.8977,1.8986,1.9005,1.8995,1.8984,1.8987,1.8984,1.8988,1.9006,1.9006,1.9006,1.9006,0,1.8294,1.8314,1.8365,1.8424,1.8465,1.8513,1.8561,1.8584,1.8636,1.8674,1.8731,1.8768,1.884,1.8895,1.8953,1.8986,1.9004,1.9009,1.9017,1.9008,1.8991,1.9,1.8952,1.9007,1.9007,1.9007,1.9007,1.9007,1.8312,1.8347,1.8404,1.8459,1.85,1.8544,1.8581,1.8621,1.867,1.8733,1.8755,1.8813,1.8865,1.8946,1.8979,1.9024,1.9024,1.9036,1.9039,1.9041,1.904,1.8984,1.9034,1.9034,1.9034,1.9034,1.9034,0,1.8349,1.8387,1.8438,1.8505,1.8548,1.8563,1.8617,1.8651,1.8703,1.8751,1.8798,1.8862,1.8916,1.8964,1.902,1.9047,1.9056,1.906,1.9058,1.9065,1.9036,1.9024,1.9051,1.9051,1.9051,1.9051,1.9051,1.9051,1.8373,1.8432,1.846,1.8539,1.8577,1.8635,1.8665,1.8705,1.8744,1.8816,1.8861,1.8893,1.8941,1.9,1.905,1.9063,1.9082,1.9083,1.9097,1.907,1.9067,1.9065,1.9054,1.9086,1.9087,1.9123,1.9123,1.9123]}]]